Regional Weather Roundup
Issued by NWS

Home | Current Version | Previous Version | Text Only | Print | Product List | Glossary On
Versions: 1 2 3 4 5 6 7 8 9 10 11 12 13 14 15 16 17 18 19 20 21 22 23 24 25 26 27
000
ASUS44 KJAN 240710
RWRMS

MISSISSIPPI HOURLY WEATHER ROUNDUP
NATIONAL WEATHER SERVICE JACKSON MS
200 AM CDT SAT JUN 24 2017

NOTE: "FAIR: INDICATES FEW OR NO CLOUDS BELOW 12,000 FEET WITH NO
SIGNIFICANT WEATHER AND/OR OBSTRUCTIONS TO VISIBILITY.

MSZ001>002-007>008-010>013-018>021-025>028-034>036-240800-
NORTHWEST MISSISSIPPI

CITY           SKY/WX    TMP DP  RH WIND       PRES   REMARKS
BATESVILLE     FAIR      72  70  95 CALM      29.96S
CLARKSDALE       N/A     72  72 100 CALM      29.96S
CLEVELAND        N/A     70  70 100 NW7       29.97R
GREENWOOD      MOCLDY    72  71  97 CALM      29.94S
GREENVILLE     CLOUDY    70  68  93 N5        29.95S
OXFORD         FAIR      68  68 100 NW3       29.96S
TUNICA           N/A     70  68  94 NW3       29.96
WINONA         LGT RAIN  71  71 100 N6        29.94F
$$

MSZ003>006-009-014>017-022>024-029>033-037>039-240800-
NORTHEAST MISSISSIPPI

CITY           SKY/WX    TMP DP  RH WIND       PRES   REMARKS
COLUMBUS AFB   CLOUDY    75  75 100 SW3       29.90S
CORINTH        FAIR      73  70  88 NW5       29.92F
GOLDN TRIANGLE   N/A     72  66  83 CALM      29.87S
STARKVILLE     PTSUNNY   72  72 100 NW3       29.93F
TUPELO         CLOUDY    73  68  84 NW7       29.90F
$$

MSZ040-058-240800-
CENTRAL MISSISSIPPI

CITY           SKY/WX    TMP DP  RH WIND       PRES   REMARKS
JACKSON INTL   CLOUDY    73  71  93 SE10      29.89F
JACKSON HAWKNS PTCLDY    72  70  93 SE8       29.89F
MADISON        FAIR      70  70 100 CALM      29.89F
MERIDIAN KEY   LGT RAIN  75  74  96 SE10      29.93F
MERIDIAN NAS   LGT RAIN  74  69  85 S9        29.92F
RAYMOND        FAIR      72  70  94 SE5       29.88F
VICKSBURG VKS  SUNNY     72  70  94 CALM      29.88R
$$

MSZ059>079-240800-
SOUTH MISSISSIPPI

CITY           SKY/WX    TMP DP  RH WIND       PRES   REMARKS
COLUMBIA       DRIZZLE   75  73  94 SE5       29.99S
HATTIESBURG    CLOUDY    73  71  93 CALM      29.97S
LAUREL         CLOUDY    73  73 100 N9        29.98R
MCCOMB         HVY RAIN  73  71  93 N16G24    29.99R FOG
NATCHEZ        CLOUDY    71  70  96 SE12      29.95F
PINE BELT      CLOUDY    73  70  88 SW6       29.99R
$$

MSZ080>082-240800-
COASTAL MISSISSIPPI

CITY           SKY/WX    TMP DP  RH WIND       PRES   REMARKS
BILOXI         LGT RAIN  75  73  94 NW3       29.97F
PASCAGOULA     CLOUDY    80  77  90 SW5       29.98F
GULFPORT       CLOUDY    76  74  93 N5        29.98S
$$

LAZ007>009-015>016-023>026-240800-
NORTHEAST LOUISIANA

CITY           SKY/WX    TMP DP  RH WIND       PRES   REMARKS
BASTROP        FAIR      70  69  98 CALM      29.97F
TALLULAH/VBURG CLOUDY    71  69  93 NW6       29.94R
VIDALIA        LGT RAIN  73  72  97 CALM      29.95R
$$




USA.gov is the U.S. government's official web portal to all federal, state and local government web resources and services.